Location: Écuvilly
(49.6505°N, 2.9206°E)
Time: 17:07:59
(UTC+00:00)

Cosmos 2084 Rocket - Pass Details

Date: 17 November 2025
Orbit: 548 x 566 km, 62.8° (Epoch: 12 December)

Event Time Altitude Azimuth Distance (km) Brightness Sun altitude
Rises 16:35:06 0° 220° (SW) 2,731 8.2 -5.5°
Reaches altitude 10° 16:37:18 10° 219° (SW) 1,843 7.1 -5.9°
Maximum altitude 16:41:27 83° 131° (SE) 572 3.4 -6.5°
Drops below altitude 10° 16:45:40 10° 45° (NE) 1,866 5.5 -7.1°
Enters shadow 16:46:17 - 45° (NE) 2,114 5.7 -7.2°
